KUIPER-00094

导读 | 豆包AI

KUIPER-00094是美国亚马逊公司(后项目更名Amazon Leo,原Project Kuiper柯伊伯计划)的低轨卫星互联网星座组网卫星,于2025年7月16日发射。该项目计划部署超3200颗低轨卫星,旨在为全球尤其是网络覆盖薄弱地区提供高速低延迟卫星互联网服务,可对接云计算服务,是全球低轨卫星互联网竞争的重要组成部分。

基本信息
目录编号:
64839
目录名称:
KUIPER-00094
国际标识:
2025-151Z
轨道中心:
EARTH
卫星名称:
KUIPER-00094
卫星全名:
KUIPER-00094
卫星状态:
在轨 (已飞行241 天)
发射日期:
2025-07-16 UTC
国别 :
美国 (US)
星等 :
--
轨道信息
数据来源 国际轨道数据 AOE轨道数据
星历时间 2026-03-13T19:58:15+0800
15小时前
查看轨道信息
2026-03-14T08:00:00+0800
3小时前
查看轨道信息
半长轴 6931.551km 6931.59km
偏心率 0.0005594 0.0005778
轨道倾角 51.888° 51.889°
近地点辐角 303.118° 305.282°
升交点赤经 244.864° 242.564°
平近点角 56.926° 250.843°
近地点 549.536km 549.447km
远地点 557.292km 557.459km
周期 95.721分钟 95.721分钟
每日圈数 15.043788 15.04366
详细信息
使用方式:
暂无
2D轨道图
3D轨道图
轨道高度分析图
轨道倾角分析图
轨道综合分析图
查看轨道综合分析图